Вернуться в каталог

AETHER-3

АктивенСвязьSSO
NORAD 67374·PAYLOAD·🇨🇦 Canada

Запущен Jan 11, 2026 с Vandenberg Space Force Base

Loading…

Ближайшие Пролёты (ближайшие 24 часа)

TLE

СвежийSource: Space-Track

Эпоха: Sep 14, 2026, 09:46 UTC

1 67374U 26004M   26257.40736589  .00000424  00000-0  53294-4 0  9990
2 67374  97.8068 254.5792 0004387 153.7236 206.4203 14.87024447 36568

Отслеживайте AETHER-3 в реальном времени с AllMySat

Download on the App Store